Overview Statistics Trail Chart Weather Telemetry Raw packets
 

This is the latest recevied weather packets stored in our database for station/object VE3CGR-6. If no packets are shown the sender has not sent any weather packets the latest 10 day(s).

<< 2 3 4 5 6 7 8 >>
Time Temp. Humidity Pressure Rain* Wind** Luminosity Snow
1788563417 22.22° C 64% 1014.6 hPa 0 mm - - -
1788562817 22.22° C 64% 1014.3 hPa 0 mm - - -
1788562217 22.22° C 64% 1014.3 hPa 0 mm - - -
1788561617 22.22° C 64% 1014.3 hPa 0 mm - - -
1788561017 22.22° C 63% 1014.3 hPa 0 mm - - -
1788559817 22.78° C 61% 1014.4 hPa 0 mm - - -
1788559217 22.78° C 59% 1014.1 hPa 0 mm - - -
1788558617 23.33° C 58% 1013.9 hPa 0 mm - - -
1788558017 23.33° C 57% 1013.8 hPa 0 mm - - -
1788557417 23.89° C 57% 1013.9 hPa 0 mm - - -
1788556817 24.44° C 56% 1014 hPa 0 mm - - -
1788556217 25° C 55% 1014.1 hPa 0 mm - - -
1788555618 25° C 59% 1014.1 hPa 0 mm - - -
1788555017 25° C 59% 1014.3 hPa 0 mm - - -
1788554417 23.89° C 60% 1014.3 hPa 0 mm - - -
1788553817 24.44° C 58% 1014.3 hPa 0 mm - - -
1788553217 24.44° C 60% 1014.5 hPa 0 mm - - -
1788552617 24.44° C 58% 1014.6 hPa 0 mm - - -
1788552017 24.44° C 59% 1014.7 hPa 0 mm - - -
1788551417 24.44° C 61% 1014.7 hPa 0 mm - - -
1788550817 24.44° C 60% 1014.9 hPa 0 mm - - -
1788550217 24.44° C 59% 1015.1 hPa 0 mm - - -
1788549617 24.44° C 61% 1015.1 hPa 0 mm - - -
1788549017 24.44° C 63% 1015.1 hPa 0 mm - - -
1788548417 24.44° C 63% 1015.1 hPa 0 mm - - -

* Rain latest hour (hover to see other rain measurements)
** Current wind speed in m/s (hover to see current wind gust speed)